| time (UTC) | temp F | wind direction | speed knots | gust knots | rain 1hr in | rain 24hr in | rain mn in | humidity % | barometer mb |
| 20260507020953 | 43 | 287 | 0.0 | 2.6 | 0.00 | 0.45 | 0.45 | 94 | 1009.7 |
| 20260507020450 | 43 | 235 | 1.7 | 1.7 | 0.00 | 0.45 | 0.45 | 94 | 1009.7 |
| 20260507015947 | 43 | 195 | 0.0 | 1.7 | 0.00 | 0.45 | 0.45 | 94 | 1009.8 |
| 20260507015445 | 43 | 207 | 0.0 | 1.7 | 0.00 | 0.45 | 0.45 | 94 | 1009.6 |
| 20260507014942 | 43 | 245 | 0.9 | 0.9 | 0.00 | 0.45 | 0.45 | 93 | 1009.8 |
| 20260507014438 | 43 | 209 | 1.7 | 1.7 | 0.00 | 0.45 | 0.45 | 93 | 1009.9 |
| 20260507013935 | 43 | 226 | 0.0 | 1.7 | 0.00 | 0.45 | 0.45 | 93 | 1009.7 |
| 20260507013432 | 43 | 218 | 0.0 | 2.6 | 0.00 | 0.45 | 0.45 | 93 | 1009.6 |
| 20260507012929 | 44 | 167 | 0.0 | 0.9 | 0.00 | 0.45 | 0.45 | 92 | 1009.6 |
| 20260507012426 | 44 | 180 | 0.0 | 0.9 | 0.00 | 0.45 | 0.45 | 92 | 1009.5 |
| 20260507011922 | 44 | 205 | 0.0 | 0.9 | 0.00 | 0.45 | 0.45 | 92 | 1009.6 |
| 20260507011420 | 44 | 219 | 0.0 | 1.7 | 0.00 | 0.45 | 0.45 | 92 | 1009.7 |
| 20260507010919 | 44 | 77 | 0.9 | 0.9 | 0.00 | 0.45 | 0.45 | 92 | 1009.6 |
| 20260507010415 | 44 | 55 | 0.0 | 0.9 | 0.00 | 0.45 | 0.45 | 91 | 1009.5 |
| 20260507005912 | 44 | 159 | 0.0 | 0.9 | 0.00 | 0.45 | 0.45 | 91 | 1009.6 |
| 20260507005409 | 44 | 350 | 0.0 | 0.0 | 0.00 | 0.45 | 0.45 | 91 | 1009.4 |
| 20260507004906 | 44 | 64 | 0.0 | 1.7 | 0.00 | 0.45 | 0.45 | 91 | 1009.4 |
| 20260507004403 | 44 | 135 | 0.0 | 0.0 | 0.00 | 0.45 | 0.45 | 90 | 1009.3 |
| 20260507003900 | 45 | 89 | 0.0 | 0.9 | 0.00 | 0.45 | 0.45 | 90 | 1009.4 |
| 20260507003355 | 45 | 253 | 0.0 | 1.7 | 0.00 | 0.45 | 0.45 | 89 | 1009.5 |
| 20260507002851 | 45 | 345 | 0.0 | 0.9 | 0.00 | 0.45 | 0.45 | 89 | 1009.4 |
| 20260507002347 | 45 | 240 | 0.0 | 2.6 | 0.00 | 0.45 | 0.45 | 89 | 1009.3 |
| 20260507001844 | 45 | 214 | 1.7 | 1.7 | 0.00 | 0.45 | 0.45 | 89 | 1009.3 |
| 20260507001341 | 45 | 310 | 0.0 | 1.7 | 0.00 | 0.45 | 0.45 | 89 | 1009.4 |
| 20260507000837 | 45 | 323 | 0.0 | 1.7 | 0.00 | 0.45 | 0.45 | 89 | 1009.1 |
| 20260507000335 | 45 | 52 | 0.9 | 1.7 | 0.00 | 0.45 | 0.45 | 89 | 1009.1 |
| 20260506235830 | 45 | 243 | 0.9 | 2.6 | 0.00 | 0.45 | 0.45 | 88 | 1009.1 |
| 20260506235326 | 45 | 38 | 0.0 | 0.9 | 0.00 | 0.45 | 0.45 | 88 | 1009.2 |
| 20260506234822 | 45 | 306 | 0.0 | 1.7 | 0.00 | 0.45 | 0.45 | 88 | 1009.1 |
| 20260506234320 | 45 | 235 | 0.0 | 0.0 | 0.00 | 0.45 | 0.45 | 88 | 1008.8 |
| 20260506233818 | 45 | 231 | 0.9 | 1.7 | 0.00 | 0.45 | 0.45 | 88 | 1008.9 |
| 20260506233314 | 45 | 44 | 0.0 | 0.9 | 0.00 | 0.45 | 0.45 | 87 | 1008.9 |
| 20260506232811 | 45 | 286 | 0.0 | 0.0 | 0.00 | 0.45 | 0.45 | 87 | 1008.9 |
| 20260506232306 | 45 | 20 | 0.0 | 1.7 | 0.00 | 0.45 | 0.45 | 86 | 1008.9 |
| 20260506231803 | 45 | 358 | 0.0 | 0.9 | 0.00 | 0.45 | 0.45 | 86 | 1009.1 |
| 20260506231301 | 46 | 315 | 0.0 | 0.9 | 0.00 | 0.45 | 0.45 | 86 | 1008.8 |
| 20260506230758 | 46 | 76 | 0.0 | 1.7 | 0.00 | 0.45 | 0.45 | 85 | 1008.7 |
| 20260506230255 | 46 | 48 | 0.0 | 0.0 | 0.00 | 0.45 | 0.45 | 84 | 1008.6 |
| 20260506225751 | 46 | 146 | 1.7 | 1.7 | 0.00 | 0.45 | 0.45 | 84 | 1008.6 |
| 20260506225248 | 46 | 203 | 0.9 | 1.7 | 0.00 | 0.45 | 0.45 | 84 | 1008.8 |
| 20260506224744 | 46 | 252 | 1.7 | 2.6 | 0.00 | 0.45 | 0.45 | 83 | 1008.7 |
| 20260506224242 | 46 | 292 | 0.9 | 1.7 | 0.00 | 0.45 | 0.45 | 83 | 1008.8 |
| 20260506223738 | 46 | 23 | 0.9 | 1.7 | 0.00 | 0.45 | 0.45 | 83 | 1008.8 |
| 20260506223234 | 46 | 269 | 0.0 | 2.6 | 0.00 | 0.45 | 0.45 | 82 | 1008.6 |
| 20260506222731 | 46 | 310 | 1.7 | 2.6 | 0.00 | 0.45 | 0.45 | 81 | 1008.7 |
| 20260506222226 | 46 | 307 | 1.7 | 1.7 | 0.00 | 0.45 | 0.45 | 82 | 1008.8 |
| 20260506221725 | 46 | 210 | 0.9 | 1.7 | 0.00 | 0.45 | 0.45 | 81 | 1008.6 |
| 20260506221223 | 47 | 31 | 0.0 | 1.7 | 0.00 | 0.45 | 0.45 | 80 | 1008.5 |
| 20260506220720 | 47 | 38 | 0.9 | 1.7 | 0.00 | 0.45 | 0.45 | 79 | 1008.5 |
| 20260506220214 | 47 | 43 | 2.6 | 3.5 | 0.00 | 0.45 | 0.45 | 78 | 1008.4 |
| 20260506215711 | 47 | 73 | 0.9 | 1.7 | 0.00 | 0.45 | 0.45 | 78 | 1008.2 |
| 20260506215207 | 47 | 38 | 1.7 | 2.6 | 0.00 | 0.45 | 0.45 | 79 | 1008.4 |
| 20260506214703 | 47 | 55 | 2.6 | 2.6 | 0.00 | 0.45 | 0.45 | 78 | 1008.5 |
| 20260506214201 | 47 | 55 | 0.9 | 1.7 | 0.00 | 0.45 | 0.45 | 78 | 1008.6 |
| 20260506213659 | 46 | 89 | 0.9 | 2.6 | 0.00 | 0.45 | 0.45 | 79 | 1008.6 |
| 20260506213156 | 46 | 88 | 3.5 | 4.3 | 0.00 | 0.45 | 0.45 | 80 | 1008.5 |
| 20260506212653 | 46 | 89 | 2.6 | 5.2 | 0.00 | 0.45 | 0.45 | 79 | 1008.6 |
| 20260506212148 | 46 | 77 | 5.2 | 5.2 | 0.00 | 0.45 | 0.45 | 80 | 1008.5 |
| 20260506211644 | 46 | 47 | 3.5 | 5.2 | 0.00 | 0.45 | 0.45 | 81 | 1008.7 |
| 20260506211141 | 46 | 79 | 3.5 | 4.3 | 0.00 | 0.45 | 0.45 | 83 | 1008.7 |
| 20260506210638 | 46 | 34 | 3.5 | 4.3 | 0.00 | 0.45 | 0.45 | 83 | 1008.7 |
| 20260506210134 | 46 | 80 | 2.6 | 3.5 | 0.00 | 0.45 | 0.45 | 83 | 1008.7 |
| 20260506205631 | 46 | 54 | 3.5 | 5.2 | 0.00 | 0.45 | 0.45 | 82 | 1008.5 |
| 20260506205126 | 46 | 57 | 4.3 | 5.2 | 0.00 | 0.45 | 0.45 | 82 | 1008.5 |
| 20260506204624 | 47 | 59 | 3.5 | 3.5 | 0.00 | 0.45 | 0.45 | 84 | 1008.6 |
| 20260506204121 | 47 | 46 | 2.6 | 2.6 | 0.00 | 0.45 | 0.45 | 86 | 1008.4 |
| 20260506203619 | 46 | 85 | 2.6 | 3.5 | 0.00 | 0.45 | 0.45 | 85 | 1008.4 |
| 20260506203115 | 46 | 68 | 3.5 | 5.2 | 0.00 | 0.45 | 0.45 | 84 | 1008.6 |
| 20260506202614 | 46 | 42 | 3.5 | 3.5 | 0.00 | 0.45 | 0.45 | 84 | 1008.5 |
| 20260506202109 | 46 | 43 | 3.5 | 7.0 | 0.00 | 0.45 | 0.45 | 84 | 1008.2 |
| 20260506201607 | 46 | 72 | 4.3 | 5.2 | 0.00 | 0.45 | 0.45 | 86 | 1008.2 |
| 20260506201103 | 46 | 91 | 2.6 | 3.5 | 0.00 | 0.45 | 0.45 | 85 | 1008.4 |
| 20260506200600 | 46 | 59 | 3.5 | 5.2 | 0.00 | 0.45 | 0.45 | 87 | 1008.3 |
| 20260506200057 | 46 | 67 | 4.3 | 5.2 | 0.00 | 0.45 | 0.45 | 87 | 1008.2 |
| 20260506195553 | 46 | 86 | 3.5 | 3.5 | 0.00 | 0.45 | 0.45 | 86 | 1008.4 |
| 20260506195049 | 45 | 67 | 4.3 | 5.2 | 0.00 | 0.45 | 0.45 | 87 | 1008.5 |
| 20260506194548 | 45 | 87 | 3.5 | 3.5 | 0.00 | 0.45 | 0.45 | 88 | 1008.6 |
| 20260506194043 | 45 | 94 | 3.5 | 3.5 | 0.00 | 0.45 | 0.45 | 88 | 1008.9 |
| 20260506193541 | 45 | 69 | 4.3 | 4.3 | 0.00 | 0.45 | 0.45 | 88 | 1008.7 |
| 20260506193038 | 45 | 49 | 3.5 | 3.5 | 0.00 | 0.45 | 0.45 | 89 | 1008.5 |
| 20260506192535 | 45 | 86 | 2.6 | 5.2 | 0.00 | 0.45 | 0.45 | 90 | 1008.3 |
| 20260506192031 | 45 | 82 | 1.7 | 4.3 | 0.00 | 0.45 | 0.45 | 91 | 1008.2 |
| 20260506191528 | 45 | 84 | 3.5 | 5.2 | 0.00 | 0.45 | 0.45 | 91 | 1008.5 |
| 20260506191024 | 45 | 85 | 2.6 | 5.2 | 0.00 | 0.45 | 0.45 | 91 | 1008.7 |
| 20260506190521 | 45 | 95 | 2.6 | 5.2 | 0.00 | 0.45 | 0.45 | 91 | 1008.8 |
| 20260506190019 | 45 | 94 | 2.6 | 7.0 | 0.00 | 0.45 | 0.45 | 91 | 1008.8 |
| 20260506185515 | 45 | 40 | 5.2 | 8.7 | 0.00 | 0.45 | 0.45 | 91 | 1008.7 |
| 20260506185012 | 45 | 97 | 3.5 | 4.3 | 0.00 | 0.45 | 0.45 | 91 | 1008.6 |
| 20260506184509 | 45 | 95 | 3.5 | 4.3 | 0.00 | 0.45 | 0.45 | 91 | 1008.6 |
| 20260506184006 | 44 | 84 | 2.6 | 6.1 | 0.00 | 0.45 | 0.45 | 90 | 1008.8 |
| 20260506183502 | 44 | 94 | 3.5 | 6.1 | 0.00 | 0.45 | 0.45 | 90 | 1008.8 |
| 20260506182959 | 44 | 77 | 5.2 | 7.0 | 0.00 | 0.45 | 0.45 | 90 | 1008.8 |
| 20260506182456 | 44 | 75 | 3.5 | 9.6 | 0.00 | 0.45 | 0.45 | 89 | 1008.7 |
| 20260506181953 | 44 | 82 | 3.5 | 8.7 | 0.00 | 0.45 | 0.45 | 89 | 1008.5 |
| 20260506181451 | 44 | 86 | 5.2 | 7.8 | 0.00 | 0.45 | 0.45 | 90 | 1008.8 |
| 20260506180948 | 44 | 72 | 5.2 | 7.0 | 0.00 | 0.45 | 0.45 | 90 | 1008.6 |
| 20260506180444 | 44 | 85 | 3.5 | 5.2 | 0.00 | 0.45 | 0.45 | 90 | 1008.7 |
| 20260506175941 | 44 | 92 | 6.1 | 7.8 | 0.00 | 0.45 | 0.45 | 90 | 1008.4 |
| 20260506175438 | 45 | 69 | 4.3 | 7.0 | 0.00 | 0.45 | 0.45 | 90 | 1008.7 |
| 20260506174934 | 45 | 86 | 3.5 | 4.3 | 0.02 | 0.45 | 0.45 | 90 | 1008.4 |
| 20260506174432 | 45 | 83 | 2.6 | 7.0 | 0.02 | 0.45 | 0.45 | 90 | 1008.4 |
| 20260506173929 | 44 | 88 | 2.6 | 6.1 | 0.00 | 0.45 | 0.45 | 90 | 1008.3 |
| 20260506173426 | 44 | 88 | 3.5 | 6.1 | 0.00 | 0.45 | 0.45 | 90 | 1008.5 |
| 20260506172923 | 45 | 91 | 5.2 | 7.8 | 0.00 | 0.45 | 0.45 | 90 | 1008.6 |
| 20260506172420 | 45 | 92 | 1.7 | 4.3 | 0.00 | 0.45 | 0.45 | 91 | 1008.6 |
| 20260506171917 | 44 | 98 | 5.2 | 6.1 | 0.00 | 0.45 | 0.45 | 90 | 1008.5 |
| 20260506171414 | 44 | 93 | 3.5 | 7.8 | 0.00 | 0.45 | 0.45 | 90 | 1008.5 |
| 20260506170912 | 44 | 102 | 4.3 | 9.6 | 0.00 | 0.45 | 0.45 | 89 | 1008.7 |
| 20260506170408 | 44 | 93 | 3.5 | 4.3 | 0.00 | 0.45 | 0.45 | 89 | 1008.6 |
| 20260506165907 | 45 | 73 | 6.1 | 10.4 | 0.00 | 0.45 | 0.45 | 90 | 1008.7 |
| 20260506165405 | 45 | 71 | 4.3 | 7.8 | 0.02 | 0.45 | 0.45 | 91 | 1008.7 |
| 20260506164901 | 44 | 95 | 4.3 | 8.7 | 0.02 | 0.45 | 0.45 | 91 | 1008.8 |
| 20260506164357 | 44 | 107 | 4.3 | 7.0 | 0.00 | 0.45 | 0.45 | 93 | 1009.1 |
| 20260506163856 | 44 | 101 | 5.2 | 7.8 | 0.02 | 0.45 | 0.45 | 92 | 1009.2 |
| 20260506163349 | 44 | 68 | 6.1 | 9.6 | 0.00 | 0.44 | 0.44 | 92 | 1009.4 |
| 20260506162845 | 44 | 67 | 4.3 | 7.0 | 0.02 | 0.44 | 0.44 | 92 | 1009.3 |
| 20260506162343 | 44 | 45 | 5.2 | 9.6 | 0.05 | 0.44 | 0.44 | 92 | 1009.3 |
| 20260506161840 | 44 | 87 | 3.5 | 5.2 | 0.02 | 0.44 | 0.44 | 93 | 1009.4 |
| 20260506161338 | 44 | 102 | 4.3 | 5.2 | 0.00 | 0.43 | 0.43 | 93 | 1009.3 |
| 20260506160835 | 44 | 102 | 5.2 | 7.8 | 0.02 | 0.43 | 0.43 | 93 | 1009.4 |
| 20260506160332 | 43 | 78 | 4.3 | 7.0 | 0.02 | 0.43 | 0.43 | 93 | 1009.4 |
| 20260506155831 | 43 | 77 | 3.5 | 7.8 | 0.02 | 0.43 | 0.43 | 93 | 1009.2 |
| 20260506155327 | 43 | 100 | 3.5 | 6.1 | 0.02 | 0.43 | 0.43 | 93 | 1009.4 |
| 20260506153439 | 44 | 51 | 1.7 | 3.5 | 0.02 | 0.42 | 0.42 | 94 | 1009.3 |
| 20260506152937 | 44 | 98 | 2.6 | 3.5 | 0.02 | 0.42 | 0.42 | 94 | 1009.5 |
| 20260506152433 | 43 | 87 | 5.2 | 5.2 | 0.00 | 0.42 | 0.42 | 94 | 1009.4 |
| 20260506151932 | 44 | 74 | 2.6 | 6.1 | 0.02 | 0.42 | 0.42 | 94 | 1009.2 |
| 20260506151428 | 44 | 91 | 3.5 | 5.2 | 0.02 | 0.42 | 0.42 | 95 | 1009.2 |
| 20260506150926 | 43 | 63 | 6.1 | 6.1 | 0.02 | 0.41 | 0.41 | 95 | 1009.1 |
| 20260506150422 | 43 | 54 | 5.2 | 7.0 | 0.05 | 0.41 | 0.41 | 95 | 1009.2 |
| 20260506145919 | 43 | 95 | 3.5 | 6.1 | 0.02 | 0.41 | 0.41 | 95 | 1009.3 |
| 20260506145415 | 43 | 65 | 2.6 | 4.3 | 0.02 | 0.41 | 0.41 | 95 | 1009.3 |
| 20260506144913 | 43 | 77 | 3.5 | 6.1 | 0.05 | 0.41 | 0.41 | 95 | 1009.5 |
| 20260506144409 | 43 | 61 | 2.6 | 5.2 | 0.07 | 0.40 | 0.40 | 95 | 1009.3 |
| 20260506143908 | 43 | 99 | 4.3 | 6.1 | 0.05 | 0.39 | 0.39 | 95 | 1009.4 |
| 20260506143404 | 43 | 85 | 4.3 | 6.1 | 0.02 | 0.39 | 0.39 | 95 | 1009.4 |
| 20260506142902 | 43 | 85 | 4.3 | 7.0 | 0.02 | 0.39 | 0.39 | 95 | 1009.4 |
| 20260506142400 | 43 | 70 | 3.5 | 4.3 | 0.02 | 0.38 | 0.38 | 95 | 1009.5 |
| 20260506141858 | 43 | 89 | 2.6 | 5.2 | 0.05 | 0.38 | 0.38 | 95 | 1009.2 |
| 20260506141356 | 43 | 94 | 3.5 | 3.5 | 0.07 | 0.38 | 0.38 | 95 | 1009.1 |
| 20260506140854 | 43 | 101 | 3.5 | 4.3 | 0.05 | 0.37 | 0.37 | 95 | 1009.5 |
| 20260506140350 | 42 | 77 | 1.7 | 4.3 | 0.02 | 0.36 | 0.36 | 94 | 1009.5 |
| 20260506135848 | 42 | 91 | 1.7 | 3.5 | 0.07 | 0.36 | 0.36 | 94 | 1009.3 |
| 20260506135344 | 42 | 82 | 3.5 | 3.5 | 0.05 | 0.35 | 0.35 | 94 | 1009.4 |
| 20260506134840 | 42 | 81 | 2.6 | 3.5 | 0.05 | 0.35 | 0.35 | 94 | 1009.5 |
| 20260506134337 | 42 | 84 | 2.6 | 3.5 | 0.05 | 0.35 | 0.35 | 94 | 1009.4 |
| 20260506133834 | 42 | 87 | 2.6 | 5.2 | 0.05 | 0.34 | 0.34 | 94 | 1009.4 |
| 20260506133331 | 42 | 89 | 2.6 | 3.5 | 0.05 | 0.34 | 0.34 | 94 | 1009.4 |
| 20260506132827 | 42 | 67 | 3.5 | 4.3 | 0.05 | 0.34 | 0.34 | 94 | 1009.3 |
| 20260506132325 | 42 | 73 | 2.6 | 4.3 | 0.05 | 0.33 | 0.33 | 94 | 1009.2 |
| 20260506131823 | 42 | 61 | 2.6 | 3.5 | 0.05 | 0.33 | 0.33 | 94 | 1009.3 |
| 20260506131319 | 42 | 86 | 2.6 | 4.3 | 0.05 | 0.32 | 0.32 | 94 | 1009.4 |
| 20260506130816 | 42 | 81 | 5.2 | 5.2 | 0.05 | 0.32 | 0.32 | 94 | 1009.3 |
| 20260506130312 | 42 | 85 | 5.2 | 7.0 | 0.05 | 0.31 | 0.31 | 94 | 1009.4 |
| 20260506125810 | 42 | 82 | 3.5 | 6.1 | 0.05 | 0.31 | 0.31 | 94 | 1009.2 |
| 20260506125308 | 42 | 88 | 2.6 | 6.1 | 0.02 | 0.30 | 0.30 | 94 | 1009.4 |
| 20260506124807 | 42 | 65 | 4.3 | 4.3 | 0.02 | 0.30 | 0.30 | 94 | 1009.3 |
| 20260506124303 | 42 | 67 | 3.5 | 4.3 | 0.07 | 0.30 | 0.30 | 94 | 1009.4 |
| 20260506123801 | 42 | 74 | 4.3 | 7.8 | 0.05 | 0.29 | 0.29 | 94 | 1009.2 |
| 20260506123259 | 42 | 95 | 3.5 | 7.0 | 0.05 | 0.29 | 0.29 | 95 | 1009.3 |
| 20260506122756 | 43 | 85 | 4.3 | 5.2 | 0.02 | 0.28 | 0.28 | 95 | 1009.4 |
| 20260506122253 | 42 | 72 | 2.6 | 4.3 | 0.02 | 0.28 | 0.28 | 95 | 1009.5 |
| 20260506121751 | 42 | 68 | 7.0 | 7.0 | 0.02 | 0.28 | 0.28 | 95 | 1009.5 |
| 20260506121248 | 42 | 94 | 2.6 | 3.5 | 0.05 | 0.28 | 0.28 | 95 | 1009.3 |
| 20260506120745 | 42 | 87 | 3.5 | 4.3 | 0.05 | 0.27 | 0.27 | 95 | 1009.3 |
| 20260506120243 | 43 | 78 | 3.5 | 3.5 | 0.05 | 0.27 | 0.27 | 95 | 1009.6 |
| 20260506115740 | 43 | 80 | 2.6 | 6.1 | 0.05 | 0.26 | 0.26 | 95 | 1009.7 |
| 20260506115238 | 43 | 72 | 3.5 | 4.3 | 0.05 | 0.26 | 0.26 | 95 | 1009.6 |
| 20260506114736 | 43 | 52 | 3.5 | 7.8 | 0.05 | 0.26 | 0.26 | 95 | 1009.8 |
| 20260506114233 | 42 | 92 | 3.5 | 5.2 | 0.02 | 0.25 | 0.25 | 94 | 1009.7 |
| 20260506113731 | 42 | 47 | 4.3 | 5.2 | 0.02 | 0.25 | 0.25 | 94 | 1010.0 |
| 20260506113229 | 42 | 39 | 4.3 | 4.3 | 0.05 | 0.25 | 0.25 | 94 | 1009.9 |
| 20260506112725 | 42 | 42 | 3.5 | 5.2 | 0.02 | 0.24 | 0.24 | 94 | 1009.9 |
| 20260506112223 | 42 | 55 | 3.5 | 4.3 | 0.02 | 0.24 | 0.24 | 94 | 1010.0 |
| 20260506111720 | 42 | 41 | 2.6 | 3.5 | 0.05 | 0.24 | 0.24 | 93 | 1009.9 |
| 20260506111218 | 42 | 26 | 2.6 | 4.3 | 0.09 | 0.24 | 0.24 | 93 | 1009.7 |
| 20260506110714 | 42 | 60 | 3.5 | 5.2 | 0.09 | 0.23 | 0.23 | 93 | 1010.0 |
| 20260506110212 | 42 | 55 | 3.5 | 5.2 | 0.07 | 0.22 | 0.22 | 93 | 1009.7 |
| 20260506105708 | 42 | 45 | 4.3 | 5.2 | 0.09 | 0.22 | 0.22 | 94 | 1009.9 |
| 20260506105206 | 42 | 72 | 4.3 | 6.1 | 0.07 | 0.21 | 0.21 | 95 | 1010.1 |
| 20260506104704 | 43 | 54 | 1.7 | 2.6 | 0.07 | 0.20 | 0.20 | 95 | 1009.9 |
| 20260506104201 | 43 | 24 | 0.9 | 1.7 | 0.07 | 0.19 | 0.19 | 95 | 1009.7 |
| 20260506103658 | 43 | 42 | 1.7 | 3.5 | 0.07 | 0.18 | 0.18 | 95 | 1009.8 |
| 20260506103155 | 43 | 30 | 1.7 | 2.6 | 0.09 | 0.18 | 0.18 | 95 | 1009.7 |
| 20260506102653 | 43 | 57 | 4.3 | 6.1 | 0.09 | 0.17 | 0.17 | 95 | 1009.5 |
| 20260506102150 | 43 | 68 | 2.6 | 3.5 | 0.09 | 0.17 | 0.17 | 95 | 1009.5 |
| 20260506101647 | 43 | 41 | 1.7 | 3.5 | 0.09 | 0.16 | 0.16 | 95 | 1009.7 |
| 20260506101144 | 43 | 29 | 2.6 | 3.5 | 0.07 | 0.15 | 0.15 | 95 | 1009.7 |
| 20260506100642 | 43 | 31 | 5.2 | 5.2 | 0.05 | 0.14 | 0.14 | 95 | 1009.4 |
| 20260506100140 | 43 | 41 | 4.3 | 4.3 | 0.05 | 0.14 | 0.14 | 95 | 1008.9 |
| 20260506095638 | 43 | 41 | 3.5 | 3.5 | 0.05 | 0.13 | 0.13 | 95 | 1009.1 |
| 20260506095134 | 43 | 26 | 2.6 | 2.6 | 0.07 | 0.13 | 0.13 | 95 | 1009.2 |
| 20260506094632 | 43 | 55 | 1.7 | 1.7 | 0.05 | 0.12 | 0.12 | 95 | 1009.2 |
| 20260506094130 | 43 | 63 | 1.7 | 1.7 | 0.07 | 0.12 | 0.12 | 94 | 1008.9 |
| 20260506093628 | 43 | 36 | 2.6 | 2.6 | 0.07 | 0.11 | 0.11 | 94 | 1008.9 |
| 20260506093125 | 43 | 83 | 1.7 | 2.6 | 0.07 | 0.11 | 0.11 | 94 | 1008.9 |
| 20260506092623 | 43 | 65 | 1.7 | 2.6 | 0.05 | 0.10 | 0.10 | 94 | 1009.3 |
| 20260506092119 | 44 | 32 | 1.7 | 2.6 | 0.05 | 0.09 | 0.09 | 94 | 1009.6 |
| 20260506091618 | 44 | 41 | 3.5 | 4.3 | 0.05 | 0.09 | 0.09 | 94 | 1009.5 |
| 20260506091115 | 44 | 25 | 3.5 | 3.5 | 0.05 | 0.09 | 0.09 | 94 | 1009.4 |
| 20260506090613 | 44 | 27 | 0.9 | 1.7 | 0.02 | 0.08 | 0.08 | 94 | 1009.5 |
| 20260506090109 | 44 | 44 | 0.0 | 0.9 | 0.00 | 0.08 | 0.08 | 94 | 1009.8 |
| 20260506085606 | 44 | 193 | 0.0 | 0.9 | 0.02 | 0.08 | 0.08 | 94 | 1009.7 |
| 20260506085102 | 44 | 217 | 2.6 | 2.6 | 0.02 | 0.08 | 0.08 | 94 | 1009.8 |
| 20260506084559 | 44 | 227 | 0.0 | 1.7 | 0.00 | 0.07 | 0.07 | 94 | 1009.8 |
| 20260506084055 | 44 | 55 | 0.0 | 0.9 | 0.00 | 0.07 | 0.07 | 94 | 1009.4 |
| 20260506083552 | 44 | 55 | 0.0 | 1.7 | 0.00 | 0.07 | 0.07 | 94 | 1009.5 |
| 20260506083050 | 44 | 31 | 0.0 | 0.9 | 0.00 | 0.07 | 0.07 | 94 | 1009.5 |
| 20260506082546 | 44 | 174 | 0.0 | 1.7 | 0.00 | 0.07 | 0.07 | 94 | 1009.3 |
| 20260506082042 | 44 | 135 | 0.9 | 0.9 | 0.00 | 0.07 | 0.07 | 94 | 1009.3 |
| 20260506081540 | 44 | 162 | 0.9 | 1.7 | 0.00 | 0.07 | 0.07 | 94 | 1009.2 |
| 20260506081037 | 44 | 193 | 1.7 | 1.7 | 0.00 | 0.07 | 0.07 | 94 | 1009.5 |
| 20260506080535 | 44 | 193 | 0.0 | 2.6 | 0.00 | 0.07 | 0.07 | 94 | 1009.4 |
| 20260506073519 | 44 | 245 | 0.0 | 0.9 | 0.00 | 0.07 | 0.07 | 94 | 1009.6 |
| 20260506073016 | 44 | 288 | 0.0 | 0.9 | 0.00 | 0.07 | 0.07 | 94 | 1009.6 |
| 20260506072513 | 44 | 189 | 0.0 | 0.0 | 0.00 | 0.07 | 0.07 | 94 | 1009.5 |
| 20260506072010 | 44 | 251 | 1.7 | 2.6 | 0.02 | 0.07 | 0.07 | 94 | 1009.4 |
| 20260506071508 | 44 | 251 | 1.7 | 2.6 | 0.00 | 0.07 | 0.07 | 94 | 1009.4 |
| 20260506071005 | 44 | 251 | 1.7 | 2.6 | 0.00 | 0.07 | 0.07 | 94 | 1009.3 |
| 20260506070502 | 44 | 251 | 1.7 | 2.6 | 0.02 | 0.07 | 0.07 | 94 | 1009.1 |
| 20260506062439 | 45 | 286 | 1.7 | 1.7 | 0.05 | 0.06 | 0.06 | 94 | 1009.8 |
| 20260506061935 | 45 | 266 | 0.9 | 4.3 | 0.05 | 0.05 | 0.05 | 93 | 1010.0 |
| 20260506061432 | 45 | 11 | 0.0 | 3.5 | 0.05 | 0.05 | 0.05 | 93 | 1010.0 |
| 20260506060930 | 45 | 339 | 0.0 | 1.7 | 0.02 | 0.04 | 0.04 | 93 | 1009.8 |
| 20260506060428 | 45 | 304 | 0.0 | 2.6 | 0.02 | 0.04 | 0.04 | 93 | 1009.9 |
| 20260506051400 | 46 | 290 | 1.7 | 3.5 | 0.00 | 0.02 | 0.02 | 92 | 1009.4 |
| 20260506050857 | 46 | 249 | 3.5 | 4.3 | 0.00 | 0.02 | 0.02 | 91 | 1009.6 |
| 20260506050355 | 46 | 220 | 6.1 | 6.1 | 0.00 | 0.02 | 0.02 | 92 | 1009.6 |
| 20260506044845 | 46 | 251 | 1.7 | 1.7 | 0.02 | 0.02 | 0.02 | 93 | 1009.7 |
| 20260506044343 | 46 | 276 | 0.9 | 4.3 | 0.02 | 0.02 | 0.02 | 93 | 1009.5 |
| 20260506043840 | 46 | 204 | 1.7 | 4.3 | 0.02 | 0.02 | 0.02 | 92 | 1009.3 |
| 20260506043337 | 46 | 246 | 1.7 | 5.2 | 0.05 | 0.02 | 0.02 | 92 | 1009.6 |
| 20260506042835 | 46 | 230 | 1.7 | 7.0 | 0.05 | 0.01 | 0.01 | 92 | 1009.5 |
| 20260506042334 | 46 | 250 | 1.7 | 6.1 | 0.02 | 0.01 | 0.01 | 92 | 1009.6 |
| 20260506041832 | 46 | 235 | 4.3 | 6.1 | 0.02 | 0.00 | 0.00 | 92 | 1009.8 |
| 20260506041329 | 46 | 251 | 2.6 | 5.2 | 0.00 | 0.00 | 0.00 | 92 | 1009.7 |
| 20260506040826 | 46 | 256 | 4.3 | 5.2 | 0.00 | 0.00 | 0.00 | 92 | 1009.6 |
| 20260506040323 | 46 | 337 | 1.7 | 3.5 | 0.02 | 0.00 | 0.00 | 93 | 1009.7 |
| 20260506035820 | 46 | 271 | 2.6 | 7.8 | 0.02 | 0.36 | 0.36 | 93 | 1009.8 |
| 20260506035317 | 46 | 226 | 5.2 | 7.0 | 0.02 | 0.36 | 0.36 | 93 | 1009.6 |
| 20260506034814 | 46 | 251 | 2.6 | 7.8 | 0.05 | 0.36 | 0.36 | 93 | 1009.4 |
| 20260506034311 | 46 | 239 | 4.3 | 6.1 | 0.02 | 0.35 | 0.35 | 93 | 1009.3 |
| 20260506033808 | 46 | 226 | 3.5 | 6.1 | 0.05 | 0.35 | 0.35 | 93 | 1009.3 |
| 20260506033305 | 46 | 238 | 4.3 | 5.2 | 0.07 | 0.35 | 0.35 | 92 | 1009.3 |
| 20260506032802 | 46 | 274 | 1.7 | 3.5 | 0.05 | 0.34 | 0.34 | 92 | 1009.3 |
| 20260506032259 | 46 | 264 | 0.9 | 4.3 | 0.05 | 0.34 | 0.34 | 91 | 1009.4 |
| 20260506031755 | 46 | 233 | 3.5 | 8.7 | 0.05 | 0.34 | 0.34 | 91 | 1009.2 |
| 20260506031253 | 47 | 241 | 3.5 | 3.5 | 0.05 | 0.33 | 0.33 | 91 | 1009.2 |
| 20260506030751 | 47 | 230 | 2.6 | 4.3 | 0.02 | 0.33 | 0.33 | 91 | 1009.2 |
| 20260506030248 | 47 | 282 | 3.5 | 3.5 | 0.00 | 0.32 | 0.32 | 92 | 1009.1 |
| 20260506025745 | 47 | 172 | 2.6 | 7.8 | 0.02 | 0.32 | 0.32 | 92 | 1009.2 |
| 20260506025241 | 47 | 172 | 2.6 | 7.8 | 0.02 | 0.32 | 0.32 | 92 | 1008.7 |
| 20260506024738 | 47 | 88 | 0.0 | 1.7 | 0.00 | 0.32 | 0.32 | 92 | 1008.8 |
| 20260506024235 | 47 | 200 | 2.6 | 3.5 | 0.00 | 0.32 | 0.32 | 92 | 1008.8 |
| 20260506023731 | 47 | 212 | 3.5 | 8.7 | 0.02 | 0.32 | 0.32 | 92 | 1008.6 |
| 20260506023229 | 47 | 265 | 1.7 | 8.7 | 0.00 | 0.32 | 0.32 | 93 | 1008.7 |
| 20260506022725 | 47 | 226 | 5.2 | 8.7 | 0.02 | 0.32 | 0.32 | 93 | 1008.6 |
| 20260506022223 | 48 | 231 | 4.3 | 7.0 | 0.05 | 0.32 | 0.32 | 93 | 1008.7 |
| 20260506021721 | 48 | 219 | 7.8 | 9.6 | 0.07 | 0.31 | 0.31 | 93 | 1008.7 |